Regional Weather Roundup
Issued by NWS

Home | Current Version | Previous Version | Text Only | Print | Product List | Glossary On
Versions: 1 2 3 4 5 6 7 8 9 10 11 12 13 14 15 16 17 18 19 20 21 22 23 24 25 26 27 28 29 30 31 32 33 34 35 36 37 38 39 40 41 42 43 44 45 46 47 48 49 50
000
ASUS46 KLOX 260312
RWRCA

SOUTHERN CALIFORNIA WEATHER ROUNDUP
NATIONAL WEATHER SERVICE OXNARD CALIFORNIA
800 PM PDT FRI JUL 25 2014

NOTE: "FAIR" INDICATES FEW OR NO CLOUDS BELOW 12,000 FEET WITH NO
SIGNIFICANT WEATHER AND/OR OBSTRUCTIONS TO VISIBILITY.

  -  STATIONS PRECEEDED BY AN ASTERISK (*) ARE NOT NWS OR FAA
     STATIONS AND ARE NOT SUBJECT TO NWS AND FAA QUALITY CONTROL.

CAZ041-042-087-260400-
LA AND ORANGE COUNTY COASTAL AREAS


CITY           SKY/WX    TMP DP  RH WIND       PRES   REMARKS
L.A. DOWNTOWN  PTCLDY    74  64  71 CALM      29.87R
L.A. AIRPORT   PTCLDY    70  63  78 W7        29.89R
LONG BEACH     CLEAR     71  64  78 VRB3      29.88R

CITY           SKY/WX    TMP DP  RH WIND       PRES   REMARKS
AVALON           N/A     70 N/A N/A MISG        N/A
FULLERTON      CLEAR     75  63  66 S6        29.87R
*GETTY CENTER    N/A     68  63  83 SW3         N/A
HAWTHORNE      PTCLDY    72  65  78 W6        29.88R
*LEO CARRILLO    N/A     66  62  87 W8          N/A
*LOS ALAMITOS  PTCLDY    71  64  79 S5        29.88R
*REDONDO BEACH   N/A     69  64  82 CALM      29.88S
SANTA ANA      PTCLDY    74  64  71 S12       29.89R
STA MONICA APT PTCLDY    71  64  78 SW5       29.89R
TORRANCE       MOCLDY    72  66  83 W12       29.89R
*UCLA            N/A     70  63  78 W3        29.87R

$$

CAZ547-548-048-260400-
LA COUNTY VALLEYS AND INLAND EMPIRE


CITY           SKY/WX    TMP DP  RH WIND       PRES   REMARKS
BURBANK        PTCLDY    79  62  56 S6        29.89R
VAN NUYS       PTCLDY    80  55  42 SE7       29.88R

CITY           SKY/WX    TMP DP  RH WIND       PRES   REMARKS
CORONA AIRPORT CLEAR     80  64  58 NW7       29.87R
CHINO          MOCLDY    79  63  57 W13       29.89R
*CLAREMONT       N/A     81  54  38 SW6         N/A
MARCH AFB      CLEAR     82  61  47 NW8       29.92R
*NORTHRIDGE      N/A     81  52  36 E1          N/A
ONTARIO        MOCLDY    84  56  38 W12       29.88S
*PASADENA        N/A     79  66  65 CALM        N/A
RIVERSIDE      CLEAR     83  62  49 W8        29.88R
SAN BERNARDINO PTCLDY    84  55  37 SW9       29.89R
*SAN GABRIEL     N/A     80  58  47 S10       29.84R
*SAN RAFAEL HI   N/A     75  60  60 E2          N/A
*SAUGUS          N/A     82  58  43 S8G21       N/A
*WHITEMAN AP   MOCLDY    81  63  54 E6        29.93R
*WHITTIER HILL   N/A     72  64  75 S7          N/A
*WOODLAND HILL   N/A     81  55  41 NE2         N/A

$$

CAZ054-055-260400-
LA AND SAN BERNARDINO COUNTY MOUNTAINS


CITY           SKY/WX    TMP DP  RH WIND       PRES   REMARKS
*ACTON           N/A     87  45  22 SW5G18      N/A
*BIG BEAR AIRP CLEAR     68  32  26 W6        30.29R
*BIG PINES       N/A     70   3   7 S2          N/A
MT WILSON NWS    N/A     75  18  11 SE3         N/A
SANDBERG       PTCLDY    78  44  29 S12G18    30.10R

$$

CAZ028-029-059-060-099-260400-
ANTELOPE VALLEY AND SURROUNDING AREAS


CITY           SKY/WX    TMP DP  RH WIND       PRES   REMARKS
LANCASTER      MOCLDY    85  43  22 W15       29.93R
PALMDALE       PTCLDY    88  34  14 SW21      29.92R
*POPPY PARK      N/A     85  47  26 SW15G36     N/A

CITY           SKY/WX    TMP DP  RH WIND       PRES   REMARKS
29 PALMS       PTCLDY    95  46  18 SW9       29.93R HX  91
BARSTOW/DAGGET PTCLDY    99  40  13 SW20      29.84R HX  94
BISHOP         CLEAR     88  20   8 NW9       29.95R
CHINA LAKE     MOCLDY    99  26   7 SW10      29.82R HX  92
EDWARDS AFB    MOCLDY    89  26  10 SW15G23   29.89R
NEEDLES        PTCLDY   104  61  24 S5        29.76R HX 105
VICTORVILLE    CLEAR     88  36  15 S12       29.95R

$$

CAZ039-040-260400-
VENTURA AND SANTA BARBARA COUNTY COAST


CITY           SKY/WX    TMP DP  RH WIND       PRES   REMARKS
CAMARILLO      MOCLDY    68  61  78 W5        29.89R
NWS OXNARD       N/A     66  60  81 W2        29.89R
OXNARD AIRPORT CLOUDY    64  61  90 W10       29.89R FOG
*POINT MUGU    MOCLDY    69  61  75 W7        29.90R
SBA APT/GOLETA PTCLDY    64  61  88 W8        29.88R
*SANTA BARBARA   N/A     69  59  70 NE1       29.96R
*VENTURA         N/A     67  61  82 SW7       29.93R

$$

CAZ044-045-260400-
VENTURA COUNTY VALLEYS


CITY           SKY/WX    TMP DP  RH WIND       PRES   REMARKS
*SIMI VALLEY     N/A     75  65  70 CALM      29.83R
*OJAI            N/A     79  59  50 NW1       29.81R
*FILLMORE        N/A     74  64  72 CALM      29.79R

$$

CAZ053-260400-
VENTURA COUNTY MOUNTAINS


CITY           SKY/WX    TMP DP  RH WIND       PRES   REMARKS
*LOCKWOOD VLY    N/A     77  41  27 MISG        N/A
*ROSE VALLEY     N/A     82  52  34 MISG        N/A

$$

CAZ034-035-036-260400-
CENTRAL COAST AND SANTA YNEZ VALLEY


CITY           SKY/WX    TMP DP  RH WIND       PRES   REMARKS
SAN LUIS OBISP CLEAR     65  58  78 NW8       29.89R
SANTA MARIA    CLOUDY    63  57  82 W6        29.91R HAZE

CITY           SKY/WX    TMP DP  RH WIND       PRES   REMARKS
*CAL POLY SLO    N/A     72  61  68 SW3         N/A
*CAMBRIA         N/A     58  57  96 NE3       29.80R
*LOMPOC          N/A     63  55  77 MISG      29.91R
*PISMO BEACH     N/A     62  60  93 SW3       29.91R

$$

CAZ037-038-051-260400-
SAN LUIS OBISPO COUNTY INTERIOR AND CUYAMA VALLEY


CITY           SKY/WX    TMP DP  RH WIND       PRES   REMARKS
*CUYAMA          N/A     82  55  38 W12       29.79R
PASO ROBLES    CLEAR     82  52  35 S15       29.87R

$$

CAZ032-033-061-260400-
SOUTHERN DESERTS


CITY           SKY/WX    TMP DP  RH WIND       PRES   REMARKS
BLYTHE         MOCLDY   105  61  23 S12       29.75R HX 106
IMPERIAL       MOCLDY   101  62  27 S13       29.72R HX 102
PALM SPRINGS   CLEAR     95  70  44 CALM      29.77R HX 101
THERMAL        PTCLDY    98  61  29 CALM      29.70R HX  98

$$

ELSEWHERE ACROSS THE WESTERN UNITED STATES AND MEXICO


CITY           SKY/WX    TMP DP  RH WIND       PRES   REMARKS
DENVER, CO     CLOUDY    74  55  51 SW17G26   30.11S
GRAND CANYON,  MOCLDY    72  46  39 SW3       30.30R
HONOLULU, HI   PTSUNNY   84  66  54 N12       29.93S
KAHULUI, MAUI  MOSUNNY   84  64  51 NE20G28   29.91S
LAKE TAHOE, CA CLEAR     71  35  26 SW5       30.19R
LAS VEGAS, NV  MOCLDY    99  52  20 S17G28    29.81R HX  96
MAMMOTH LAKES, FAIR      73  23  15 W7        30.25S
MEXICO CITY, M CLOUDY    63  54  72 W14       30.36R
PHOENIX, AZ    CLOUDY    91  60  35 S14G28    29.85F HX  90
PORTLAND, OR   CLEAR     74  54  49 NW8       30.04S
RENO, NV       PTCLDY    85  32  15 W16       30.02R
SALT LAKE CITY PTCLDY    84  41  21 W6        29.95R
SAN DIEGO, CA  MOCLDY    73  64  73 CALM      29.91R
SAN FRANCISCO, PTCLDY    71  57  61 NW12      29.84R
SAN JOSE, CA   PTCLDY    80  49  33 NW12      29.84R
SEATTLE, WA    PTCLDY    70  51  51 N9        30.10S
TIJUANA, MEX   PTCLDY    73  61  64 NW7       29.92R

$$

STATION/POSITION TIME  TEMP    WIND        PRES    VSBY  WAVE
                       AIR SEA DIR/SP/G                  HT/PER
                 (UTC) (F)     (DEG/KT/KT) (MB)    (MI)  (FT/S)
POINT ARGUELLO B NOT AVBL
WEST SANTA BARBA 0300   61 61  300/ 10/ 12 1011.4R         6/10
POINT CONCEPTION NOT AVBL
EAST SANTA BARBA 0300   61 65  270/ 12/ 14 1012.0R
SANTA MONICA BAY 0300   68 69   CALM  /  2 1011.6R         2/15


USA.gov is the U.S. government's official web portal to all federal, state and local government web resources and services.